Dunkirk, NY

8:36 AM EDT on June 22, 2017 (GMT -0400)
Chautauqua County-Dunkirk

Weather History for KDKK - November, 2012

Change the Weather History Date:

Thursday, November 1, 2012

  Actual Average Record
Temperature  
Mean Temperature 44 °F -  
Max Temperature 46 °F 59 °F 82 °F (1950)
Min Temperature 42 °F 41 °F 25 °F (2010)
Degree Days  
Heating Degree Days 21    
Moisture  
Dew Point 38 °F    
Average Humidity 80    
Maximum Humidity 89    
Minimum Humidity 68    
Precipitation  
Precipitation 0.21 in - - ()
Sea Level Pressure  
Sea Level Pressure 29.59 in    
Wind  
Wind Speed 13 mph (West)    
Max Wind Speed 17 mph    
Max Gust Speed 28 mph    
Visibility 9 miles    
Events Rain    
Averages and records for this station are not official NWS values.
T = Trace of Precipitation, MM = Missing Value Source: NWS Daily Summary

Daily Weather History Graph

Daily Weather History Graph

Search for Another Location

Airport or City:

Trip Planner

Search our weather history database for the weather conditions in past years. The results will help you decide how hot, cold, wet, or windy it might be!

Date:

Astronomy

Nov. 01, 2012 Rise Set
Actual Time 7:51 AM EDT 6:09 PM EDT
Civil Twilight 7:21 AM EDT 6:38 PM EDT
Nautical Twilight 6:48 AM EDT 7:12 PM EDT
Astronomical Twilight 6:15 AM EDT 7:44 PM EDT
Moon 8:02 PM EDT (11/1) 10:24 AM EDT (11/1)
Length of Visible Light 11h 16m
Length of Day
10h 18m
Waning Gibbous, 93% of the Moon is Illuminated
Nov 1
Waning Gibbous
Nov 6
Last Quarter
Nov 13
New
Nov 20
First Quarter
Nov 28
Full

Hourly Weather History & Observations

Time (EDT) Temp. Windchill Dew Point Humidity Pressure Visibility Wind Dir Wind Speed Gust Speed Precip Events Conditions
12:53 AM 44.1 °F 38.1 °F 41.0 °F 89% 29.51 in 7.0 mi West 11.5 mph 21.9 mph 0.00 in Rain Light Rain
1:36 AM 44.6 °F 38.1 °F 41.0 °F 87% 29.50 in 10.0 mi West 13.8 mph 19.6 mph 0.00 in Rain Light Rain
1:53 AM 44.1 °F 38.1 °F 41.0 °F 89% 29.51 in 7.0 mi West 11.5 mph 20.7 mph 0.00 in Rain Light Rain
2:50 AM 44.6 °F 38.4 °F 41.0 °F 87% 29.51 in 9.0 mi West 12.7 mph 24.2 mph 0.03 in Rain Light Rain
2:53 AM 44.1 °F 36.8 °F 41.0 °F 89% 29.52 in 9.0 mi West 16.1 mph 24.2 mph 0.03 in Rain Light Rain
3:08 AM 44.6 °F 37.4 °F 41.0 °F 87% 29.50 in 8.0 mi WSW 16.1 mph 25.3 mph 0.01 in Rain Light Rain
3:39 AM 44.6 °F 39.2 °F 41.0 °F 87% 29.50 in 6.0 mi WSW 10.4 mph 25.3 mph 0.05 in Rain Rain
3:53 AM 45.0 °F 38.5 °F 41.0 °F 86% 29.52 in 7.0 mi WSW 13.8 mph 23.0 mph 0.07 in Rain Light Rain
4:21 AM 44.6 °F 38.1 °F 41.0 °F 87% 29.51 in 8.0 mi West 13.8 mph 23.0 mph 0.02 in Rain Light Rain
4:53 AM 44.1 °F 37.1 °F 41.0 °F 89% 29.52 in 10.0 mi WSW 15.0 mph 23.0 mph 0.03 in Rain Light Rain
5:53 AM 44.1 °F 37.4 °F 41.0 °F 89% 29.53 in 10.0 mi West 13.8 mph 20.7 mph 0.03 in Rain Light Rain
6:53 AM 44.1 °F 37.4 °F 39.9 °F 85% 29.54 in 9.0 mi West 13.8 mph 20.7 mph 0.02 in Rain Light Rain
8:00 AM 42.8 °F 36.2 °F 39.2 °F 87% 29.55 in 8.0 mi West 12.7 mph 20.7 mph 0.00 in Rain Light Rain
8:12 AM 42.8 °F 36.2 °F 39.2 °F 87% 29.55 in 9.0 mi West 12.7 mph 20.7 mph 0.00 in Rain Light Rain
8:40 AM 42.8 °F 36.6 °F 39.2 °F 87% 29.56 in 7.0 mi West 11.5 mph 19.6 mph 0.00 in Rain Light Rain
8:51 AM 42.8 °F 34.8 °F 39.2 °F 87% 29.57 in 9.0 mi West 17.3 mph 23.0 mph 0.00 in Rain Light Rain
8:53 AM 43.0 °F 36.0 °F 39.0 °F 86% 29.57 in 9.0 mi WSW 13.8 mph 23.0 mph 0.00 in Rain Light Rain
9:00 AM 42.8 °F 37.0 °F 39.2 °F 87% 29.57 in 7.0 mi West 10.4 mph 23.0 mph 0.00 in Rain Light Rain
10:53 AM 44.1 °F 36.5 °F 39.0 °F 82% 29.60 in 10.0 mi West 17.3 mph 24.2 mph 0.00 in   Overcast
11:53 AM 44.1 °F 37.1 °F 39.0 °F 82% 29.61 in 10.0 mi West 15.0 mph 23.0 mph 0.01 in Rain Light Rain
12:49 PM 44.6 °F 38.4 °F 37.4 °F 76% 29.59 in 10.0 mi West 12.7 mph 21.9 mph 0.00 in   Overcast
12:53 PM 44.1 °F 37.1 °F 37.0 °F 76% 29.60 in 10.0 mi West 15.0 mph 21.9 mph 0.00 in   Overcast
1:53 PM 45.0 °F 38.2 °F 37.0 °F 74% 29.59 in 10.0 mi West 15.0 mph 21.9 mph N/A   Overcast
2:22 PM 44.6 °F 37.4 °F 37.4 °F 76% 29.58 in 10.0 mi West 16.1 mph 24.2 mph 0.00 in   Overcast
2:53 PM 46.0 °F 39.3 °F 37.0 °F 71% 29.59 in 10.0 mi West 16.1 mph 26.5 mph 0.00 in   Overcast
3:29 PM 44.6 °F 37.8 °F 37.4 °F 76% 29.59 in 10.0 mi West 15.0 mph 26.5 mph 0.00 in Rain Light Rain
3:53 PM 45.0 °F 38.2 °F 37.9 °F 76% 29.60 in 10.0 mi WSW 15.0 mph 25.3 mph 0.00 in Rain Light Rain
4:01 PM 44.6 °F 38.4 °F 37.4 °F 76% 29.59 in 10.0 mi West 12.7 mph 23.0 mph 0.00 in Rain Light Rain
4:48 PM 44.6 °F 37.8 °F 39.2 °F 81% 29.60 in 10.0 mi West 15.0 mph 21.9 mph 0.00 in Rain Light Rain
4:53 PM 45.0 °F 38.9 °F 37.9 °F 76% 29.61 in 10.0 mi West 12.7 mph 26.5 mph 0.00 in Rain Light Rain
5:17 PM 44.6 °F 37.8 °F 37.4 °F 76% 29.61 in 10.0 mi West 15.0 mph 23.0 mph 0.00 in Rain Light Rain
5:53 PM 44.1 °F 37.7 °F 39.0 °F 82% 29.63 in 10.0 mi West 12.7 mph 20.7 mph 0.01 in Rain Light Rain
6:53 PM 44.1 °F 37.1 °F 39.0 °F 82% 29.65 in 10.0 mi West 15.0 mph 21.9 mph 0.00 in Rain Light Rain
7:53 PM 44.1 °F 37.7 °F 37.9 °F 79% 29.67 in 10.0 mi West 12.7 mph 23.0 mph 0.01 in   Overcast
8:19 PM 44.6 °F 37.8 °F 37.4 °F 76% 29.65 in 10.0 mi West 15.0 mph 24.2 mph N/A   Overcast
8:28 PM 44.6 °F 38.1 °F 37.4 °F 76% 29.66 in 10.0 mi West 13.8 mph 24.2 mph N/A   Overcast
8:53 PM 44.1 °F 37.7 °F 37.0 °F 76% 29.67 in 10.0 mi West 12.7 mph 21.9 mph N/A   Overcast
9:17 PM 44.6 °F 38.4 °F 37.4 °F 76% 29.66 in 10.0 mi West 12.7 mph 24.2 mph N/A   Overcast
9:25 PM 44.6 °F 38.8 °F 37.4 °F 76% 29.66 in 10.0 mi West 11.5 mph 20.7 mph N/A   Overcast
9:53 PM 44.1 °F 39.0 °F 36.0 °F 73% 29.68 in 10.0 mi West 9.2 mph 24.2 mph N/A   Overcast
10:29 PM 44.6 °F 37.4 °F 35.6 °F 71% 29.67 in 10.0 mi West 16.1 mph 23.0 mph N/A   Overcast
10:36 PM 44.6 °F 39.2 °F 35.6 °F 71% 29.67 in 10.0 mi West 10.4 mph 23.0 mph N/A   Overcast
10:45 PM 44.6 °F 38.1 °F 35.6 °F 71% 29.67 in 10.0 mi West 13.8 mph 24.2 mph N/A   Overcast
10:53 PM 45.0 °F 38.2 °F 36.0 °F 71% 29.68 in 10.0 mi West 15.0 mph 27.6 mph N/A   Overcast
11:14 PM 44.6 °F 38.4 °F 35.6 °F 71% 29.66 in 10.0 mi West 12.7 mph 19.6 mph N/A   Overcast
11:21 PM 44.6 °F 38.4 °F 35.6 °F 71% 29.66 in 10.0 mi West 12.7 mph 20.7 mph N/A   Overcast
11:53 PM 45.0 °F 38.5 °F 35.1 °F 68% 29.67 in 10.0 mi West 13.8 mph 20.7 mph N/A   Overcast